Location: *
(2.5500°S, 65.9667°W)
Time: 11:28:25
(UTC+00:00)

Okean O Rocket - Pass Details

Date: 26 October 2021
Orbit: 623 x 643 km, 98.2° (Epoch: 28 November)

Event Time Altitude Azimuth Distance (km) Brightness Sun altitude
Rises 22:56:27 0° 162° (SSE) 2,907 5.0 -11.3°
Reaches altitude 10° 22:58:40 10° 158° (SSE) 1,996 4.1 -11.8°
Maximum altitude 23:02:57 60° 78° (ENE) 712 1.5 -12.9°
Drops below altitude 10° 23:07:12 10° 358° (N) 1,984 4.0 -13.9°
Sets 23:09:24 0° 355° (N) 2,887 4.9 -14.4°
